This demonstration page uses our WeatherBlox Daily Observations layout. Learn more.

Left ArrowRight Arrow

Hourly Observations for June 23, 2021

Temp ( °F °C ) Dew Point ( °F °C ) Humidity (%) Winds ( mph kmh ) Pressure ( in mb ) Visibility ( mi km ) Precip ( " mm )
12:15 am 00:15 Clear 73 22.7 54 12.2 52 52 S 13 20 29.69 1005 10 16 N/A
12:35 am 00:35 Clear 72 22.1 54 12.3 54 54 S 14 22 29.69 1005 10 16 N/A
12:55 am 00:55 Clear 71 21.7 54 12.3 55 55 S 13 20 29.70 1006 10 16 N/A
1:15 am 01:15 Clear 70 21.3 55 12.5 57 57 S 12 19 29.72 1006 10 16 N/A
1:35 am 01:35 Clear 69 20.8 54 12.4 59 59 S 10 17 29.72 1006 10 16 N/A
1:55 am 01:55 Clear 70 21.1 54 12.1 57 57 S 10 17 29.71 1006 10 16 N/A
2:15 am 02:15 Clear 70 21.1 53 11.8 55 55 S 12 19 29.71 1006 10 16 N/A
2:35 am 02:35 Clear 70 20.9 53 11.7 56 56 S 13 20 29.72 1006 10 16 N/A
2:55 am 02:55 Clear 69 20.3 53 11.7 58 58 S 12 19 29.72 1006 10 16 N/A
3:15 am 03:15 Clear 68 20 53 11.6 59 59 S 13 20 29.71 1006 10 16 N/A
3:35 am 03:35 Clear 67 19.5 53 11.6 60 60 S 12 19 29.72 1006 10 16 N/A
3:55 am 03:55 Clear 67 19.2 53 11.6 62 62 S 12 19 29.72 1007 10 16 N/A
4:15 am 04:15 Clear 66 19 53 11.6 62 62 S 10 17 29.72 1006 10 16 N/A
4:35 am 04:35 Clear 65 18.4 53 11.8 66 66 S 8 13 29.73 1007 10 16 N/A
4:55 am 04:55 Clear 63 17.4 54 12 71 71 S 8 13 29.74 1007 10 16 N/A
5:15 am 05:15 Clear 64 17.5 54 12.1 71 71 S 8 13 29.74 1007 10 16 N/A
5:35 am 05:35 Clear 62 16.5 54 12.3 76 76 S 7 11 29.75 1007 10 16 N/A
5:55 am 05:55 Clear 62 16.7 55 12.5 76 76 S 7 11 29.75 1007 10 16 N/A
6:15 am 06:15 Sunny 62 16.8 55 12.5 76 76 S 7 11 29.74 1007 10 16 N/A
6:35 am 06:35 Sunny 63 17 55 12.6 75 75 S 9 15 29.74 1007 10 16 N/A
6:55 am 06:55 Sunny 63 17.1 55 13 77 77 S 7 11 29.75 1008 10 16 N/A
7:15 am 07:15 Sunny 64 17.8 56 13.3 75 75 S 8 13 29.75 1007 10 16 N/A
7:35 am 07:35 Sunny 65 18.5 57 13.7 74 74 S 10 17 29.74 1007 10 16 N/A
7:55 am 07:55 Sunny 66 19.1 57 14.1 73 73 S 9 15 29.74 1007 10 16 N/A
8:15 am 08:15 Sunny 68 20.1 58 14.6 71 71 S 10 17 29.73 1007 10 16 N/A
8:35 am 08:35 Sunny 70 21 59 15.1 69 69 S 12 19 29.73 1007 10 16 N/A
8:55 am 08:55 Sunny 71 21.7 60 15.7 69 69 S 15 24 29.71 1006 10 16 N/A
9:15 am 09:15 Sunny 73 22.6 62 16.4 68 68 S 13 20 29.71 1006 10 16 N/A
9:35 am 09:35 Sunny 74 23.5 63 17.1 67 67 S 16 26 29.69 1005 10 16 N/A
9:55 am 09:55 Sunny 75 23.8 63 17.3 67 67 SSW 17 28 29.69 1005 10 16 N/A
10:15 am 10:15 Sunny 76 24.5 64 17.5 65 65 S 12 19 29.68 1005 10 16 N/A
10:35 am 10:35 Sunny 77 25 64 17.7 64 64 S 13 20 29.69 1005 10 16 N/A
10:55 am 10:55 Sunny 78 25.4 65 18.1 64 64 S 12 19 29.68 1005 10 16 N/A
11:15 am 11:15 Sunny 78 25.8 65 18.1 63 63 S 12 19 29.67 1005 10 16 N/A
11:35 am 11:35 Sunny 80 26.5 65 18.6 62 62 S 12 19 29.67 1005 10 16 N/A
11:55 am 11:55 Hazy 81 27 66 18.9 61 61 SSE 12 19 29.66 1004 5 8 N/A
12:15 pm 12:15 Sunny 82 27.6 67 19.2 60 60 S 14 22 29.66 1004 10 16 N/A
12:35 pm 12:35 Sunny 83 28.2 67 19.4 59 59 S 15 24 29.65 1004 10 16 N/A
12:55 pm 12:55 Sunny 84 28.8 67 19.3 56 56 S 10 17 29.65 1004 10 16 N/A
1:15 pm 13:15 Sunny 85 29.6 68 20.1 57 57 S 12 19 29.64 1004 10 16 N/A
1:35 pm 13:35 Sunny 86 30.1 69 20.4 56 56 S 15 24 29.63 1003 10 16 N/A
1:55 pm 13:55 Sunny 87 30.3 68 19.9 54 54 SSE 15 24 29.63 1003 10 16 N/A
2:15 pm 14:15 Sunny 88 31 67 19.5 50 50 S 16 26 29.62 1003 10 16 N/A
2:35 pm 14:35 Sunny 89 31.6 68 19.9 50 50 S 15 24 29.61 1003 10 16 N/A
2:55 pm 14:55 Sunny 90 32.2 68 20.1 49 49 S 15 24 29.60 1002 10 16 N/A
3:15 pm 15:15 Sunny 89 31.4 68 19.9 50 50 SSE 16 26 29.61 1003 10 16 N/A
3:35 pm 15:35 Sunny 90 32.3 69 20.5 50 50 S 17 28 29.58 1002 10 16 N/A
3:55 pm 15:55 Sunny 90 32.4 68 20 48 48 SSE 12 19 29.59 1002 10 16 N/A
4:15 pm 16:15 Sunny 91 32.8 69 20.6 49 49 S 14 22 29.60 1002 10 16 N/A
4:35 pm 16:35 Sunny 91 32.6 69 20.6 49 49 S 14 22 29.59 1002 10 16 N/A
4:55 pm 16:55 Sunny 91 33 68 19.9 46 46 S 14 22 29.59 1002 10 16 N/A
5:15 pm 17:15 Sunny 90 32.4 68 20.1 48 48 S 12 19 29.59 1002 10 16 N/A
5:35 pm 17:35 Sunny 90 32.1 69 20.8 51 51 S 10 17 29.58 1002 10 16 N/A
5:55 pm 17:55 Sunny 90 32.1 69 20.7 51 51 SSE 14 22 29.58 1002 10 16 N/A
6:15 pm 18:15 Sunny 91 32.6 70 21.2 51 51 SSE 13 20 29.57 1001 10 16 N/A
6:35 pm 18:35 Sunny 91 32.6 71 21.6 52 52 SSE 12 19 29.56 1001 10 16 N/A
6:55 pm 18:55 Sunny 90 32.1 72 22 55 55 SSE 9 15 29.56 1001 10 16 N/A
7:15 pm 19:15 Sunny 90 32.1 72 22.2 56 56 SSE 10 17 29.54 1000 10 16 N/A
7:35 pm 19:35 Sunny 89 31.8 70 21.2 53 53 SSE 13 20 29.55 1001 10 16 N/A
7:55 pm 19:55 Sunny 88 31 70 21.2 56 56 S 9 15 29.57 1001 10 16 N/A
8:15 pm 20:15 Sunny 87 30.5 70 21.3 58 58 SSE 7 11 29.58 1002 10 16 N/A
8:35 pm 20:35 Sunny 85 29.5 71 21.5 62 62 SSE 7 11 29.58 1002 10 16 N/A
8:55 pm 20:55 Sunny 84 28.7 71 21.6 66 66 SSE 6 9 29.58 1002 10 16 N/A
9:15 pm 21:15 Clear 82 28 71 21.8 69 69 SSE 6 9 29.58 1002 10 16 N/A
9:35 pm 21:35 Clear 81 27.3 71 21.8 72 72 SSE 5 7 29.60 1002 10 16 N/A
9:55 pm 21:55 Clear 80 26.7 71 21.8 75 75 SE 6 9 29.59 1002 10 16 N/A
10:15 pm 22:15 Clear 79 26.2 71 21.6 76 76 SSE 7 11 29.60 1002 10 16 N/A
10:35 pm 22:35 Clear 79 26.3 70 21.3 74 74 SSE 7 11 29.60 1002 10 16 N/A
10:55 pm 22:55 Clear 81 27 69 20.7 68 68 SSE 8 13 29.59 1002 10 16 N/A
11:15 pm 23:15 Clear 81 27.2 69 20.5 67 67 SSE 7 11 29.58 1002 10 16 N/A
11:35 pm 23:35 Clear 80 26.7 68 20.1 67 67 S 6 9 29.57 1002 10 16 N/A
11:55 pm 23:55 Clear 79 26 68 20 70 70 SE 7 11 29.59 1002 10 16 N/A

Powered by AerisWeather